Regional Weather Roundup
Issued by NWS

Home | Current Version | Previous Version | Graphics & Text | Print | Product List | Glossary On
Versions: 1 2 3 4 5 6 7 8 9 10 11 12 13 14 15 16 17 18 19 20 21 22 23 24 25 26 27 28 29 30 31 32 33 34 35 36 37 38 39 40 41 42 43 44 45 46 47 48 49 50
000
ASUS43 KLOT 032300
RWRIL

ILLINOIS REGIONAL WEATHER ROUNDUP
NATIONAL WEATHER SERVICE CHICAGO/ROMEOVILLE IL
600 PM CDT SUN MAY 03 2015

NOTE: "FAIR" INDICATES FEW OR NO CLOUDS BELOW 12,000 FEET WITH NO
SIGNIFICANT WEATHER AND/OR OBSTRUCTIONS TO VISIBILITY.

* THESE STATIONS ARE NOT UNDER NWS QUALITY CONTROL. THEY ALSO MAY NOT
  REPORT WEATHER SUCH AS PRECIPITATION OR FOG.

ILZ001-002-007-009-015-016-024-040000-
NORTHWEST ILLINOIS

CITY           SKY/WX    TMP DP  RH WIND       PRES   REMARKS
MOLINE         SUNNY     81  54  39 SW12      29.84R HX  81
$$

ILZ003-004-008-010-011-017-018-040000-
NORTH CENTRAL ILLINOIS

CITY           SKY/WX    TMP DP  RH WIND       PRES   REMARKS
ROCKFORD       NOT AVBL
$$

ILZ005-006-012>014-019>023-040000-
NORTHEAST ILLINOIS

CITY           SKY/WX    TMP DP  RH WIND       PRES   REMARKS
CHICAGO-OHARE  LGT RAIN  76  47  35 SW10      29.91R
CHICAGO-MIDWAY CLOUDY    80  46  30 SW10G20   29.91R
AURORA         LGT RAIN  64  58  80 N9        29.93R
WAUKEGAN       NOT AVBL
DUPAGE AIRPORT RAIN      64  58  80 NW13      29.94R
WHEELING       LGT RAIN  71  52  50 NW20G26   29.94R
NORTHERLY ISL    N/A     79  42  26 SW9         N/A
$$

LMZ740>746-040000-
SOUTHERN LAKE MICHIGAN

STATION/POSITION SKY/WX   TEMP    WIND        PRES    VSBY  WAVE
                          AIR SEA DIR/SP/G                  HT/PER
                          (F)     (DEG/KT/KT) (MB)    (MI)  (FT/S)
HARRISON CRIB              70     170/ 13/ 14   N/A
BURNHAM HARBOR             80     200/ 11/ 14   N/A
CALUMET HARBOR             80     210/ 17/ 22   N/A
BURNS HARBOR               79     190/ 12/ 17 1013.5F
MICHIGAN CITY              78     160/ 10/ 14   N/A
MICHIGAN CITY 6N           66 51  190/  6/  8   N/A           1/ 3
ST. JOSEPH                 66 51  200/  6/  8   N/A           1
$$

ILZ025>027-034>036-040-047-049-050-058-095>099-040000-
WEST-CENTRAL ILLINOIS

CITY           SKY/WX    TMP DP  RH WIND       PRES   REMARKS
$$

ILZ028>032-037-038-041>044-048-051>054-059>061-040000-
CENTRAL ILLINOIS

CITY           SKY/WX    TMP DP  RH WIND       PRES   REMARKS
PEORIA         NOT AVBL
SPRINGFIELD    SUNNY     83  49  30 S15G26    29.92R HX  81
TAYLORVILLE    NOT AVBL
$$

ILZ033-039-045-046-055>057-062-063-040000-
EAST-CENTRAL ILLINOIS

CITY           SKY/WX    TMP DP  RH WIND       PRES   REMARKS
CHAMPAIGN      MOSUNNY   81  43  26 S22G30    29.95S
MATTOON        SUNNY     77  45  32 S13G20    29.97S
$$

ILZ079-100>102-040000-
SOUTHWEST ILLINOIS

CITY           SKY/WX    TMP DP  RH WIND       PRES   REMARKS
CAHOKIA*       MOSUNNY   81  47  30 S12G20    29.94S HX  80
$$

ILZ064>066-069>071-074>076-080>082-084>086-088>090-092>094-040000-
SOUTH-CENTRAL ILLINOIS

CITY           SKY/WX    TMP DP  RH WIND       PRES   REMARKS
CARBONDALE     MOSUNNY   76  47  35 S10       30.00F
CAIRO*         SUNNY     80  46  30 S12       30.03R
MARION         MOSUNNY   79  48  34 S12       30.02S
$$

ILZ067-068-072-073-078-083-087-091-040000-
SOUTHEAST ILLINOIS

CITY           SKY/WX    TMP DP  RH WIND       PRES   REMARKS
LAWRENCEVILLE  SUNNY     79  45  29 S16       30.01S
$$

ABBREVIATIONS USED IN REMARKS
   TC - TEMPERATURE IN CELSIUS
  WCI - WIND CHILL INDEX
   HX - HEAT INDEX
  VSB - VISIBILITY
$$



USA.gov is the U.S. government's official web portal to all federal, state and local government web resources and services.